Weather History for Oklahoma City, OK

Change the Weather History Date:

Wednesday, December 5, 2012

  Actual Average Record
Temperature  
Mean Temperature 51 °F 43 °F  
Max Temperature 63 °F 53 °F 77 °F (1975)
Min Temperature 38 °F 33 °F 9 °F (1950)
Degree Days  
Heating Degree Days 14 22  
Month to date heating degree days 34 108  
Since 1 July heating degree days 576 707  
Growing Degree Days 1 (Base 50)    
Moisture  
Dew Point 28 °F    
Average Humidity 46    
Maximum Humidity 71    
Minimum Humidity 21    
Precipitation  
Precipitation 0.00 in 0.07 in 1.00 in (1935)
Month to date precipitation 0.00 0.32  
Year to date precipitation 28.80 34.96  
Snow  
Snow 0.00 in 0.00 in 3.30 in (1992)
Month to date snowfall 0.0 0.2  
Since 1 July snowfall 0.0 0.6  
Snow Depth -    
Sea Level Pressure  
Sea Level Pressure 30.17 in    
Wind  
Wind Speed 6 mph (SSE)    
Max Wind Speed 13 mph    
Max Gust Speed 16 mph    
Visibility 10 miles    
Events      
T = Trace of Precipitation, MM = Missing Value Source: NWS Daily Summary

Daily Weather History Graph

Daily Weather History Graph

Search for Another Location

Airport:

Trip Planner

Search our weather history database for the weather conditions in past years. The results will help you decide how hot, cold, wet, or windy it might be!

Date:

Astronomy

Dec. 05, 2012 Rise Set
Actual Time 7:24 AM CST 5:17 PM CST
Civil Twilight 6:56 AM CST 5:45 PM CST
Nautical Twilight 6:25 AM CST 6:17 PM CST
Astronomical Twilight 5:54 AM CST 6:48 PM CST
Moon 11:57 PM CST (12/5) 11:58 AM CST (12/5)
Length of Visible Light 10h 48m
Length of Day
9h 52m
Waning Gibbous, 59% of the Moon is Illuminated
Dec 5
Waning Gibbous
Dec 6
Last Quarter
Dec 13
New
Dec 19
First Quarter
Dec 28
Full

Hourly Weather History & Observations

Time (CST) Temp. Windchill Dew Point Humidity Pressure Visibility Wind Dir Wind Speed Gust Speed Precip Events Conditions
12:52 AM 48.0 °F - 23.0 °F 37% 30.32 in 10.0 mi NE 5.8 mph - N/A   Clear
1:52 AM 42.1 °F - 25.0 °F 51% 30.31 in 10.0 mi Calm Calm - N/A   Clear
2:52 AM 41.0 °F 39.0 °F 25.0 °F 53% 30.31 in 10.0 mi NNW 3.5 mph - N/A   Clear
3:52 AM 39.9 °F 36.7 °F 25.0 °F 55% 30.30 in 10.0 mi East 4.6 mph - N/A   Partly Cloudy
4:52 AM 37.9 °F - 26.1 °F 62% 30.29 in 10.0 mi Calm Calm - N/A   Clear
5:52 AM 41.0 °F - 26.1 °F 55% 30.29 in 10.0 mi Calm Calm - N/A   Clear
6:52 AM 43.0 °F - 28.0 °F 56% 30.30 in 10.0 mi Calm Calm - N/A   Partly Cloudy
8:52 AM 46.9 °F - 34.0 °F 61% 30.30 in 10.0 mi Calm Calm - N/A   Scattered Clouds
9:52 AM 54.0 °F - 30.0 °F 40% 30.30 in 10.0 mi SE 9.2 mph - N/A   Scattered Clouds
10:52 AM 55.9 °F - 26.1 °F 32% 30.27 in 10.0 mi SE 10.4 mph - N/A   Scattered Clouds
11:52 AM 59.0 °F - 25.0 °F 27% 30.23 in 10.0 mi South 9.2 mph - N/A   Mostly Cloudy
12:52 PM 61.0 °F - 25.0 °F 25% 30.19 in 10.0 mi South 8.1 mph - N/A   Mostly Cloudy
1:52 PM 61.0 °F - 24.1 °F 24% 30.16 in 10.0 mi South 4.6 mph - N/A   Mostly Cloudy
2:52 PM 62.1 °F - 23.0 °F 22% 30.12 in 10.0 mi SSE 9.2 mph - N/A   Overcast
3:52 PM 60.1 °F - 25.0 °F 26% 30.10 in 10.0 mi SSE 8.1 mph - N/A   Overcast
4:52 PM 57.0 °F - 27.0 °F 32% 30.09 in 10.0 mi SSE 5.8 mph - N/A   Overcast
5:52 PM 51.1 °F - 28.0 °F 41% 30.08 in 10.0 mi SE 6.9 mph - N/A   Mostly Cloudy
6:52 PM 46.9 °F - 28.0 °F 48% 30.07 in 10.0 mi SSE 9.2 mph - N/A   Clear
7:52 PM 50.0 °F - 30.9 °F 48% 30.06 in 10.0 mi SSE 10.4 mph - N/A   Partly Cloudy
8:52 PM 50.0 °F - 34.0 °F 54% 30.04 in 10.0 mi SSE 11.5 mph - N/A   Clear
9:52 PM 46.9 °F - 36.0 °F 66% 30.03 in 10.0 mi SSE 9.2 mph - N/A   Partly Cloudy
10:52 PM 46.9 °F - 37.9 °F 71% 30.02 in 10.0 mi South 9.2 mph - N/A   Clear
11:52 PM 46.9 °F - 39.9 °F 77% 29.99 in 10.0 mi SSE 9.2 mph - N/A   Partly Cloudy